User: anonymous   Login
Location: Unspecified
(0.0000°N, 0.0000°E)
Time: 04:44:33
(UTC+02:00)
Language:

Iridium 75 - Orbit

View from above orbital plane
View from above orbital plane
View from above satellite
View from above satellite

Ground track
Ground track

The orbit data is extracted from the following two-line orbital elements,

1 25346U 98032E   17203.57356885 -.00000034 +00000-0 -19080-4 0  9993
2 25346 086.3965 209.3218 0002195 085.9081 274.2366 14.34216426004447
Epoch (UTC): 22 July 2017 13:45:56
Eccentricity: 0.0002195
inclination: 86.3965°
perigee height: 776 km
apogee height: 779 km
right ascension of ascending node: 209.3218°
argument of perigee: 85.9081°
revolutions per day: 14.34216426
mean anomaly at epoch: 274.2366°
orbit number at epoch: 444

The dashed part of the orbit path shows where the satellite is in the earth's shadow,  

DLR